Regional Weather Roundup
Issued by NWS

Home | Current Version | Previous Version | Text Only | Print | Product List | Glossary Off
Versions: 1 2 3 4 5 6 7 8 9 10 11 12 13 14 15 16 17 18 19 20 21 22 23 24 25 26 27 28 29 30 31 32 33 34 35 36 37 38 39 40 41 42 43 44 45 46 47 48 49 50

000
ASUS45 KCYS 250610
RWRWY

WYOMING REGIONAL WEATHER ROUNDUP
NATIONAL WEATHER SERVICE CHEYENNE WY
1100 PM MST SAT JAN 24 2015

NOTE:  "FAIR" INDICATES FEW OR NO CLOUDS BELOW 12,000 FEET
WITH NO SIGNIFICANT WEATHER AND/OR OBSTRUCTIONS TO VISIBILITY.

WYZ001-250700-
YELLOWSTONE NATIONAL PARK

CITY           SKY/WX    TMP DP  RH WIND       PRES   REMARKS
LK YELLOWSTONE   N/A     23  20  88 CALM      30.35F
6HR MIN TEMP:  23; 6HR MAX TEMP:  27;

W YELLOWSTONE  NOT AVBL

$$
WYZ002>013-054>058-071-098>099-250700-
NORTHERN WYOMING

CITY           SKY/WX    TMP DP  RH WIND       PRES   REMARKS
JACKSON        CLOUDY    23  23 100 NE5       30.37F WCI  17
CODY           FAIR      45  23  42 W9G17     30.15F
GREYBULL       FAIR      16  14  92 SW5       30.19R WCI   9
6HR MIN TEMP:  16; 6HR MAX TEMP:  31;

WORLAND        FAIR      19  16  88 S7        30.17F WCI  10
6HR MIN TEMP:  19; 6HR MAX TEMP:  28;

SHERIDAN       FAIR      33  29  85 W6        30.12F WCI  28
6HR MIN TEMP:  33; 6HR MAX TEMP:  39;

BUFFALO        FAIR      33  29  85 SW3       30.13S
6HR MIN TEMP:  33; 6HR MAX TEMP:  38; 6HR PCP:  0.01;

GILLETTE       FAIR      31  25  78 W14       30.10F WCI  21
6HR MIN TEMP:  31; 6HR MAX TEMP:  36;

HULETT           N/A    N/A N/A N/A MISG        N/A
NEWCASTLE      FAIR      30  27  86 NW13      30.08R WCI  20

$$
WYZ014>020-022>026-101>103-250700-
CENTRAL WYOMING

CITY           SKY/WX    TMP DP  RH WIND       PRES   REMARKS
BIG PINEY      FAIR      29  23  78 N13       30.32F WCI  19
6HR MIN TEMP:  27; 6HR MAX TEMP:  36;

PINEDALE       FAIR      32  27  80 W12       30.31R WCI  23
DUBOIS         CLOUDY    36  27  69 W12G18    30.27S WCI  27
LANDER         FAIR      35  25  66 S3        30.19S
6HR MIN TEMP:  32; 6HR MAX TEMP:  43;

RIVERTON       FAIR      32  22  66 N7        30.19F WCI  26
6HR MIN TEMP:  30; 6HR MAX TEMP:  43;

CASPER         FAIR      25  23  92 W7        30.17F WCI  17
6HR MIN TEMP:  22; 6HR MAX TEMP:  38;

DOUGLAS        CLOUDY    36  28  73 W15G25    30.16F WCI  27
6HR MIN TEMP:  34; 6HR MAX TEMP:  37; 6HR PCP:  0.01;


$$
WYZ021-027>030-104>119-250700-
SOUTHERN WYOMING

CITY           SKY/WX    TMP DP  RH WIND       PRES   REMARKS
EVANSTON       FAIR      27  23  85 W6        30.45R WCI  20
6HR MIN TEMP:  26; 6HR MAX TEMP:  34;

KEMMERER       CLOUDY    30  30 100 W8        30.41S WCI  23
FORT BRIDGER   MOCLDY    33  31  92 W21       30.42F WCI  21
ROCK SPRINGS   FAIR      32  27  81 W30G40    30.32R WCI  18
6HR MIN TEMP:  32; 6HR MAX TEMP:  35;

DIXON          CLOUDY    31  24  76 W5        30.36R WCI  26
RAWLINS        FAIR      28  24  85 W12       30.26F WCI  18
6HR MIN TEMP:  28; 6HR MAX TEMP:  32;

SARATOGA       CLOUDY    32  27  80 W21G29    30.27S WCI  20
LARAMIE        CLOUDY    33  24  69 W18       30.18R WCI  22
6HR MIN TEMP:  32; 6HR MAX TEMP:  34;

CHEYENNE       CLOUDY    39  25  57 NW22G32   30.13R WCI  29
6HR MIN TEMP:  33; 6HR MAX TEMP:  40; 6HR PCP: TRACE;

TORRINGTON     CLOUDY    39  26  59 NW18      30.11R WCI  30
6HR MIN TEMP:  38; 6HR MAX TEMP:  42; 6HR PCP: TRACE;

PINE BLUFFS    DRIZZLE   36  30  80 NW18      30.14R WCI  25

$$


USA.gov is the U.S. government's official web portal to all federal, state and local government web resources and services.